Location: La Tavernole
(44.2834°N, 3.9973°E)
Time: 17:15:24
(UTC+00:00)

Daily predictions for brighter satellites

Satellite Brightness Start Highest point End
(mag) Time Altitude Azimuth Time Altitude Azimuth Time Altitude Azimuth
SL-24 R/B - RUBIN 2 4.1 17:42:23 10° NW 17:48:17 82° NE 17:53:24 10° SE
RESURS DK-1 2.5 17:44:53 10° NNW 17:49:02 81° WSW 17:53:09 10° SSE
ERS-2 3.3 17:47:38 10° NE 17:50:34 22° E 17:53:29 10° SSE
USA 234 3.6 17:44:48 10° ENE 17:51:11 52° SE 17:57:30 10° SSW
MOS 1 Rocket 3.4 17:47:03 10° NNE 17:51:55 80° ESE 17:57:04 10° S
IRS-1C Rocket 4.2 17:47:06 10° SSE 17:52:13 56° ENE 17:57:23 10° N
Okean O Rocket 3.0 17:51:42 10° S 17:55:52 45° W 18:00:03 10° NNW
Cosmos 2369 3.7 17:52:13 10° S 17:57:47 63° ESE 18:03:24 10° NNE
USA 305 3.3 17:54:26 10° SSW 17:58:31 46° SE 18:02:36 10° ENE
PSLV R/B 4.5 17:55:42 10° NNE 17:59:31 36° E 18:03:17 10° SSE
Feng Yun 1-1 Rocket 4.4 17:54:39 10° SSE 18:00:28 89° ENE 18:06:26 10° NNW
Cosmos 1607 4.3 17:55:28 10° SW 18:01:51 77° NW 18:08:23 10° NNE
CZ-4 R/B 1.3 18:02:17 10° SSE 18:06:02 55° ENE 18:09:50 10° N
USA 307 3.2 18:02:09 10° SSW 18:06:17 50° SE 18:10:25 10° ENE
Meteor 1-10 Rocket 4.2 18:00:30 10° N 18:06:18 82° E 18:11:56 10° SSE
SeaSat 1 2.6 18:01:53 10° NE 18:06:46 56° ESE 18:11:36 10° SSW
Cosmos 2263 Rocket 3.0 18:03:48 10° N 18:08:39 29° NE 18:13:27 10° ESE
SKYMED 2 3.8 18:04:28 10° N 18:08:49 74° WNW 18:13:08 10° SSW
FALCON 9 DEB 3.0 18:09:30 10° SW 18:12:37 58° SE 18:15:24 13° ENE
USA 306 3.0 18:08:27 10° SW 18:12:39 59° SE 18:16:45 11° ENE
USA 308 3.0 18:12:19 10° SW 18:16:32 60° SE 18:20:27 12° ENE
Cosmos 2227 Rocket 3.4 18:11:08 10° NW 18:16:33 47° WSW 18:21:54 10° S
SAR-Lupe-1 4.4 18:14:25 10° NNE 18:17:52 42° E 18:21:18 10° S
Cosmos 1743 Rocket 3.8 18:14:10 10° SSW 18:18:30 74° W 18:22:55 10° N
Cosmos 1805 Rocket 3.6 18:15:18 10° S 18:19:34 59° E 18:23:54 10° NNE
H-2A R/B 4.2 18:17:49 10° N 18:21:16 27° WNW 18:24:42 10° SW
Cosmos 1850 Rocket 4.1 18:17:57 10° NNW 18:23:09 79° WSW 18:28:19 10° SSE
Cosmos 2184 Rocket 4.3 18:18:47 10° SSE 18:24:29 41° E 18:30:12 10° NNE
H-2A R/B 2.1 18:20:18 10° SSE 18:25:42 85° ENE 18:31:12 10° NNW
Meteor 1-27 Rocket 3.6 18:20:39 10° N 18:26:12 74° E 18:31:42 10° SSE
ARGOS 3.2 18:21:14 10° SSE 18:26:33 61° ENE 18:31:54 10° N
Cosmos 2228 Rocket 3.2 18:24:40 10° N 18:29:14 80° W 18:33:42 10° S
SJ-6B 4.4 18:28:39 17° ENE 18:29:21 18° ENE 18:32:11 10° NNE
Cosmos 2278 3.7 18:24:31 10° SSW 18:30:09 72° ESE 18:35:50 10° NNE
Aureole 1 Rocket 4.5 18:23:41 10° NNW 18:31:06 68° WSW 18:36:48 10° S
FALCON 9 DEB 2.9 18:28:11 10° WSW 18:31:21 82° NNW 18:33:30 19° NE
SL-08 RB Rocket 3.9 18:27:09 10° SE 18:31:25 45° ENE 18:35:44 10° N
Cosmos 1271 Rocket 3.3 18:28:27 10° N 18:31:53 33° ENE 18:35:17 10° SE
COSMOS 2455 2.8 18:26:15 10° NNW 18:32:16 68° NE 18:38:15 10° SE
GP-B 4.4 18:33:07 19° E 18:33:58 20° ENE 18:37:14 10° NNE
HJ-1C 3.3 18:30:54 10° SSE 18:34:12 63° ENE 18:37:31 10° N
Cosmos 1461 4.3 18:32:11 10° SSE 18:35:56 24° ESE 18:37:22 21° E
Okean 1 4.4 18:35:19 10° NNE 18:38:33 23° ENE 18:38:49 23° E
CZ-2C R/B 2.8 18:33:30 10° NNE 18:38:56 53° E 18:44:13 10° S
Cosmos 1689 Rocket 1.9 18:36:14 10° N 18:39:06 84° WNW 18:41:58 10° SSW
CSL-04 Debris 4.1 18:34:25 10° SSE 18:39:48 70° ENE 18:45:14 10° N
Cosmos 1666 Rocket 3.7 18:37:20 10° SSE 18:41:30 46° E 18:45:39 10° NNE
ATLAS 5 CENTAUR R/B 4.3 18:23:56 10° SW 18:41:36 57° NW 18:46:07 10° NNE
Cosmos 2084 3.7 18:37:32 10° SW 18:41:44 67° NW 18:46:02 10° NNE
Cosmos 1862 Rocket 4.3 18:39:34 10° N 18:43:36 31° ENE 18:45:35 22° ESE
BREEZE-M DEB (TANK) 2.6 18:42:36 10° W 18:44:43 38° N 18:46:17 22° NE
Cosmos 1331 Rocket 4.0 18:40:08 10° SSW 18:45:25 90° ESE 18:50:43 10° NNE
Gbstr 26 Del rocket 3.2 18:41:41 10° SW 18:46:01 76° SE 18:49:30 21° ENE
Cosmos 1844 Rocket 4.3 18:43:02 10° N 18:46:17 15° NE 18:47:04 15° NE
Cosmos 2181 Rocket 4.3 18:40:24 10° N 18:46:52 76° W 18:53:15 10° S
CSL-04 Rocket 3.6 18:41:38 10° SSE 18:47:10 76° ENE 18:52:44 10° N
NOSS 2-1 (C) 4.3 18:42:17 10° NW 18:47:22 80° NE 18:54:34 10° SE
TSX-5 3.6 18:45:54 10° NNW 18:50:24 79° ENE 18:52:49 20° SE
Abrixas rocket 4.2 18:49:13 10° S 18:49:31 11° S 18:49:31 11° S
NOSS 2-1 (D) 4.3 18:48:21 10° NW 18:53:29 87° NE 19:00:47 10° SE
FALCON 9 DEB 3.4 18:52:41 10° WSW 18:55:51 58° NNW 18:56:59 34° NE
YAOGAN 1 3.6 18:51:44 10° S 18:55:54 48° W 19:00:07 10° NNW
Helios 1A Rocket 3.1 18:52:17 10° S 18:56:22 75° WSW 19:00:27 10° NNW
Okean-O 3.6 18:52:58 10° S 18:57:15 49° W 19:01:34 10° NNW
SL-4 R/B 2.9 18:58:47 10° W 19:02:03 34° NNW 19:03:19 25° NNE
FALCON 9 DEB 3.9 19:01:17 10° W 19:04:19 42° NNW 19:05:10 33° NNE
Cosmos 1980 Rocket 2.8 18:59:57 10° SW 19:05:31 59° WNW 19:11:10 10° NNE
APEX 4.4 19:04:25 10° N 19:05:43 20° N 19:05:43 20° N
Sich 1 3.8 19:03:37 10° SSW 19:07:53 55° WNW 19:12:13 10° N
Lacrosse 5 rocket 2.6 19:03:56 10° WNW 19:08:02 40° SW 19:11:00 16° SSE
Cosmos 1302 Rocket 3.8 19:08:17 10° SSW 19:13:28 82° ESE 19:18:41 10° NNE
Cosmos 2322 Rocket 2.5 19:09:48 10° S 19:14:58 40° ESE 19:15:02 40° ESE
Cosmos 2227 4.1 19:10:51 10° NNW 19:16:40 87° ENE 19:20:30 22° SSE
Cosmos 968 Rocket 3.5 19:12:47 10° NNW 19:17:59 56° ENE 19:19:11 45° ESE
Cosmos 1437 4.0 19:17:01 10° NNW 19:19:42 36° W 19:21:07 21° SSW
Cosmos 1707 Rocket 4.2 19:15:57 10° NNW 19:20:17 56° W 19:24:33 10° S
Cosmos 1867 4.3 19:17:25 10° SW 19:22:44 54° NW 19:28:06 10° NNE
Cosmos 1633 Rocket 3.2 19:19:33 10° SSW 19:23:57 74° W 19:28:24 10° N
ERS-2 4.4 19:21:00 10° N 19:24:03 25° WNW 19:27:05 10° SW
Meteor 1-20 Rocket 4.4 19:22:26 10° SSW 19:27:52 70° WNW 19:33:21 10° N
USA 234 3.7 19:29:23 18° NE 19:34:13 57° NNW 19:40:35 10° WSW
SL-16 R/B 2.0 19:28:41 10° SSW 19:34:19 72° ESE 19:37:13 30° NE
USA 305 3.9 19:34:30 10° W 19:38:33 40° NNW 19:39:14 37° N
Meteor 1-19 Rocket 4.3 19:32:34 10° NNW 19:38:37 86° W 19:42:35 22° S
MOS 1 4.1 19:39:28 50° SSE 19:41:02 78° ENE 19:46:45 10° NNW
Resurs 01 Rocket 3.8 19:44:38 16° N 19:44:38 16° N 19:45:39 10° N
Ariane Rocket 2.8 19:43:24 73° SE 19:43:52 83° ENE 19:49:00 10° NNW
SME Rocket 4.4 19:36:31 10° NNE 19:46:05 83° ESE 19:52:07 10° SSW
USA 307 4.0 19:42:24 10° W 19:46:24 38° NNW 19:46:43 37° NNW
Cosmos 2154 Rocket 4.2 19:41:50 10° SSW 19:48:02 69° W 19:54:15 10° N
IRS-1A Rocket 4.2 19:47:27 48° SSE 19:49:10 88° WSW 19:54:50 10° NNW
Nadezhda 3 Rocket 4.2 19:42:54 10° NNW 19:49:13 70° W 19:55:32 10° S
Cosmos 2263 Rocket 3.0 19:47:27 10° NW 19:52:45 46° WSW 19:55:56 23° S
USA 306 4.2 19:48:54 10° W 19:52:49 35° NNW 19:52:52 35° NNW
Cosmos 1470 Rocket 4.2 19:51:39 10° SSW 19:56:48 52° NW 20:00:30 10° N
USA 308 4.2 19:52:49 10° W 19:56:37 34° NNW 19:56:37 34° NNW
Meteor 1-14 Rocket 4.2 19:52:54 10° SSW 19:58:33 81° WNW 20:04:07 10° N
SJ-6B 4.2 20:04:15 40° WNW 20:04:15 40° WNW 20:07:36 10° NNW
GP-B 4.4 20:10:28 37° WSW 20:11:00 38° W 20:15:10 10° NNW
Meteor 2-4 Rocket 3.8 20:06:18 10° NNW 20:11:52 76° WNW 20:11:52 76° WNW
Cosmos 1461 4.3 20:10:11 10° SW 20:13:50 42° W 20:13:50 42° W
BREEZE-M DEB (TANK) 4.2 20:00:29 10° W 20:16:59 80° N 20:17:21 77° NE
Cosmos 44 Rocket 4.5 20:16:32 10° NW 20:19:59 42° NNW 20:19:59 42° NNW
Cosmos 2278 Rocket 4.5 20:25:30 10° N 20:26:30 13° N 20:26:30 13° N
Cosmos 1844 Rocket 3.8 20:25:31 10° NNW 20:28:45 36° NNW 20:28:45 36° NNW
Cosmos 2341 Rocket 4.4 20:26:39 10° SSW 20:32:53 60° WNW 20:39:08 10° N
Cosmos 2322 Rocket 4.0 20:54:01 10° WSW 20:57:03 26° W 20:57:03 26° W
SL-16 R/B 4.4 21:14:46 10° W 21:19:01 21° NW 21:19:19 21° NW
